Hourly Weather Roundup
Issued by NWS Central Illinois

Home | Current Version | Previous Version | Text Only | Print | Product List | Glossary On
Versions: 1 2 3 4 5 6 7 8 9 10 11 12 13 14 15 16 17 18 19 20 21 22 23 24 25 26 27 28 29 30 31 32 33 34 35 36 37 38 39 40 41 42 43 44 45 46 47 48 49 50
000
NZUS43 KILX 212210
HWRILX

AREA WEATHER ROUNDUP
NATIONAL WEATHER SERVICE, LINCOLN IL
500 PM CDT TUE MAR 21 2017


CITY           SKY/WX    TMP DP  RH WIND       PRES   REMARKS
BLOOMINGTON    CLOUDY    46  36  68 NW10      30.23S
CHAMPAIGN      CLOUDY    48  33  56 N10       30.21S
DECATUR        CLOUDY    52  28  39 N13       30.22F
EFFINGHAM      CLOUDY    57  31  36 N16G26    30.21R
FLORA          PTSUNNY   62  35  35 N17G23    30.17S
GALESBURG      CLOUDY    47  32  56 W10G17    30.25F
JACKSONVILLE   CLOUDY    53  29  39 N14       30.24S
LACON          CLOUDY    47  34  60 NW9       30.24S
LAWRENCEVILLE  CLOUDY    62  32  32 N21       30.15S
LITCHFIELD     SUNNY     58  28  32 N17       30.19F
$$


CITY           SKY/WX    TMP DP  RH WIND       PRES   REMARKS
LINCOLN        CLOUDY    49  35  58 NW6       30.25R
MACOMB         CLOUDY    46  36  67 N13       30.30S
MATTOON        CLOUDY    54  30  40 N17       30.19F
MT CARMEL AP   PTSUNNY   61  30  30 N14       30.14S
OLNEY-NOBLE AP CLOUDY    61  34  36 N12       30.18R
PARIS          CLOUDY    53  33  46 N12G17    30.20F
PEORIA         CLOUDY    47  34  60 NW8       30.26R
PONTIAC        CLOUDY    47  39  73 W10       30.23S
RANTOUL        CLOUDY    47  41  80 NW8       30.21S
SPRINGFIELD    CLOUDY    52  28  39 N13       30.24F
TAYLORVILLE    CLOUDY    54  27  34 N16G22    30.22F
$$

...REGIONAL REPORTS...


CITY           SKY/WX    TMP DP  RH WIND       PRES   REMARKS
CHICAGO O`HARE MOSUNNY   44  27  51 NE14      30.23R
KANKAKEE       PTSUNNY   47  30  51 NE13      30.21R
MOLINE         PTSUNNY   53  21  28 NW15      30.25F
MOUNT STERLING CLOUDY    49  36  60 N10       30.26S
MOUNT VERNON   CLOUDY    61  32  33 NE13G18   30.14F
PITTSFIELD     CLOUDY    55  30  38 N13       30.25F
QUINCY         CLOUDY    52  36  54 N13       30.26F
ROCKFORD       MOSUNNY   53  15  22 NW15G21   30.25S
$$


CITY           SKY/WX    TMP DP  RH WIND       PRES   REMARKS
BURLINGTON     CLOUDY    47  34  60 NW10      30.28F
CEDAR RAPIDS   SUNNY     50  19  29 N14       30.28F
DES MOINES     PTSUNNY   50  17  27 N15       30.32F
KIRKSVILLE     PTSUNNY   50  35  56 NE14      30.29S
OTTUMWA        PTSUNNY   50  25  37 N10       30.30F
ST LOUIS       LGT RAIN  62  27  26 NE14      30.19S
$$


CITY           SKY/WX    TMP DP  RH WIND       PRES   REMARKS
TERRE HAUTE    PTSUNNY   55  34  45 N14G22    30.18F
EVANSVILLE     CLOUDY    63  41  44 N9        30.13S
INDIANAPOLIS   CLOUDY    54  32  43 NW15      30.17R
LAFAYETTE      CLOUDY    48  34  58 NW6       30.18F
MADISON        SUNNY     46  13  26 NW9G22    30.25R
MILWAUKEE      MOSUNNY   40  27  59 NE10      30.25R WCI  33
$$






USA.gov is the U.S. government's official web portal to all federal, state and local government web resources and services.